TimeEST,TemperatureF,Dew PointF,Humidity,Sea Level PressureIn,VisibilityMPH,Wind Direction,Wind SpeedMPH,Gust SpeedMPH,PrecipitationIn,Events,Conditions,WindDirDegrees,DateUTC
12:15 AM,14.0,8.6,79,30.24,1.5,NNW,6.9,-,0.01,Snow,Light Snow,340,2014-01-29 05:15:00
12:24 AM,14.0,8.6,79,30.23,3.0,NNW,8.1,-,0.01,Snow,Light Snow,340,2014-01-29 05:24:00
12:35 AM,14.0,8.6,79,30.23,4.0,North,6.9,-,0.01,Snow,Light Snow,350,2014-01-29 05:35:00
12:54 AM,14.0,8.1,77,30.24,6.0,North,8.1,-,0.01,Snow,Light Snow,350,2014-01-29 05:54:00
1:54 AM,14.0,8.1,77,30.22,2.5,North,10.4,-,0.02,Snow,Light Snow,350,2014-01-29 06:54:00
2:34 AM,14.0,8.6,79,30.20,2.0,North,5.8,-,0.01,Snow,Light Snow,350,2014-01-29 07:34:00
2:44 AM,14.0,8.6,79,30.20,1.5,North,5.8,-,0.02,Snow,Light Snow,350,2014-01-29 07:44:00
2:54 AM,14.0,9.0,80,30.21,1.5,NNW,8.1,-,0.02,Snow,Light Snow,340,2014-01-29 07:54:00
3:27 AM,14.0,8.6,79,30.19,2.5,NNW,8.1,-,0.00,Snow,Light Snow,340,2014-01-29 08:27:00
3:34 AM,14.0,8.6,79,30.19,5.0,NNW,6.9,-,0.00,Snow,Light Snow,340,2014-01-29 08:34:00
3:54 AM,14.0,8.1,77,30.21,5.0,NNW,5.8,-,0.00,Snow,Light Snow,340,2014-01-29 08:54:00
4:54 AM,14.0,8.1,77,30.20,3.0,NNW,9.2,-,0.00,Snow,Light Snow,330,2014-01-29 09:54:00
5:08 AM,14.0,8.6,79,30.19,2.5,NNW,6.9,-,0.00,Snow,Light Snow,340,2014-01-29 10:08:00
5:33 AM,14.0,8.6,79,30.20,1.8,NNW,8.1,-,0.01,Snow,Light Snow,330,2014-01-29 10:33:00
5:44 AM,14.0,8.6,79,30.22,2.0,NNW,8.1,-,0.01,Snow,Light Snow,330,2014-01-29 10:44:00
5:52 AM,14.0,8.6,79,30.21,1.8,NNW,9.2,-,0.01,Snow,Light Snow,330,2014-01-29 10:52:00
5:54 AM,14.0,8.1,77,30.22,1.8,NNW,9.2,-,0.01,Snow,Light Snow,330,2014-01-29 10:54:00
6:02 AM,14.0,8.6,79,30.21,2.5,NNW,10.4,-,0.00,Snow,Light Snow,340,2014-01-29 11:02:00
6:49 AM,14.0,8.6,79,30.21,2.5,NNW,8.1,-,0.00,Snow,Light Snow,330,2014-01-29 11:49:00
6:54 AM,14.0,8.1,77,30.23,3.0,NNW,9.2,-,0.00,Snow,Light Snow,330,2014-01-29 11:54:00
7:54 AM,15.1,7.0,70,30.26,10.0,NNW,10.4,-,0.00,,Overcast,330,2014-01-29 12:54:00
8:54 AM,14.0,3.9,64,30.27,10.0,NNW,11.5,-,0.00,,Scattered Clouds,330,2014-01-29 13:54:00
9:54 AM,17.1,1.0,50,30.28,10.0,North,12.7,23.0,N/A,,Clear,350,2014-01-29 14:54:00
10:54 AM,16.0,-2.9,43,30.31,10.0,NNW,15.0,23.0,N/A,,Clear,330,2014-01-29 15:54:00
11:54 AM,17.1,-0.9,45,30.29,10.0,NW,12.7,-,N/A,,Clear,310,2014-01-29 16:54:00
12:54 PM,19.9,-0.0,42,30.27,10.0,NW,8.1,-,N/A,,Clear,320,2014-01-29 17:54:00
1:54 PM,19.9,-2.0,38,30.27,10.0,NW,11.5,-,N/A,,Clear,320,2014-01-29 18:54:00
2:54 PM,19.0,-0.0,43,30.27,10.0,West,9.2,-,N/A,,Clear,270,2014-01-29 19:54:00
3:54 PM,19.9,-2.9,37,30.27,10.0,WNW,8.1,-,N/A,,Clear,300,2014-01-29 20:54:00
4:54 PM,19.0,-2.0,40,30.29,10.0,Calm,Calm,-,N/A,,Clear,0,2014-01-29 21:54:00
5:54 PM,17.1,-0.9,45,30.31,10.0,Calm,Calm,-,N/A,,Clear,0,2014-01-29 22:54:00
6:54 PM,10.9,3.0,70,30.33,10.0,Calm,Calm,-,N/A,,Clear,0,2014-01-29 23:54:00
7:54 PM,12.9,3.9,67,30.35,10.0,WSW,3.5,-,N/A,,Clear,250,2014-01-30 00:54:00
8:54 PM,9.0,1.0,70,30.35,10.0,Calm,Calm,-,N/A,,Clear,0,2014-01-30 01:54:00
9:54 PM,8.1,1.9,76,30.36,10.0,SSW,3.5,-,N/A,,Clear,200,2014-01-30 02:54:00
10:54 PM,8.1,-0.0,70,30.38,10.0,Calm,Calm,-,N/A,,Clear,0,2014-01-30 03:54:00
11:54 PM,5.0,-0.9,76,30.40,10.0,Calm,Calm,-,N/A,,Clear,0,2014-01-30 04:54:00